COSMOS 970 DEB, 10564

Orbit data source: Space-Track

COSMOS 970 DEB, 10564 is space debris in LEO originally from a launch on Wed, 21 Dec 1977 UTC launched from the Tyuratam Missile And Space Complex (TTMTR). Debris objects in space refer to the collection of defunct objects orbiting the Earth. Examples of debris include non-operational satellites, rocket bodies, and fragments generated from explosions, collisions, or faulty payload assembly.

Loading next visibility...
Identifier
10564, 1977-121F
Orbit
LEO
Country
Flag of CISCIS
Related business
Manufacturer
Unknown
Mission
Spacecraft
Bus & Motor
Unknown
Mass
Unknown
Launch date (UTC)
1977-12-21 (48 years ago)
Launch vehicle
Unknown
Launch site
Tyuratam Missile And Space Complex (TTMTR)
Object type
Payload
Rocket body
Debris
Shape & HBR
Unknown shape, 0.1 m
Radar Cross Section
Medium (>0.1 m² and <1 m²)

Expand to show TLE details & history
Last TLE update: 15 hours ago

TLE from 15 hours ago
0 COSMOS 970 DEB
1 10564U 77121F   26171.42397149  .00000028  00000-0  11267-3 0  9990
2 10564  65.8650 327.3958 0141161  41.0059 348.6553 13.70599803421239
Epoch: 2026-06-20T10:10Z
TLE epoch observation values (Epoch: 2026-06-20T10:10:31.136Z)
Latitude
26.61204°
Longitude
-80.9695°
Altitude
897.708 km
Speed
7.457 km/s
True Right ascension
22h 41m 11s
True Declination
26° 28' 38"
Sunlit
Object was in daylight at epoch
Visualization orbit readout
Latitude
Unknown
Longitude
Unknown
Altitude
Unknown
Speed
Unknown
Apparent Right ascension
Unknown
Apparent Declination
Unknown
Sunlit
N/A
Visualization observer readout
Local Sidereal Time
11:42:43
Azimuth
Unknown
Elevation
Unknown
Doppler factor
Unknown
Orbital elements
Apogee altitude
1,100.028 km
Perigee altitude
891.841 km
Semi-major axis
7,374.072 km
Eccentricity
0.01412
Inclination
65.865°
RAAN
327.3958°
Arg. of periapsis
41.0059°
True anomaly
348.33151°
Mean anomaly
348.6553°
Eccentric anomaly
348.49397°
Mean motion
3.42754 °/min
Orbital period
105.03 mins
BSTAR
0.00011267
Loading maneuver chart data...
Computing Atmospheric mass density...
Loading historical data...
Loading historical data...
Loading historical data...
Loading historical data...
Loading historical data...
Loading historical data...
Loading historical data...

Documentation

Showing up to 5 results
|